Orlando International, FL

1:42 PM EDT on July 20, 2017 (GMT -0400)
Orlando International

Weather History for KMCO - January, 2013

Change the Weather History Date:

Thursday, January 31, 2013

  Actual Average Record
Temperature  
Mean Temperature 61 °F 61 °F  
Max Temperature 71 °F 72 °F 86 °F (1982)
Min Temperature 50 °F 50 °F 24 °F (1966)
Degree Days  
Heating Degree Days 4 5  
Month to date heating degree days 57 192  
Since 1 July heating degree days 222 384  
Cooling Degree Days 0 2  
Month to date cooling degree days 101 45  
Year to date cooling degree days 101 45  
Growing Degree Days 8 (Base 50)    
Moisture  
Dew Point 45 °F    
Average Humidity 59    
Maximum Humidity 93    
Minimum Humidity 25    
Precipitation  
Precipitation 0.04 in 0.08 in 1.34 in (1926)
Month to date precipitation 0.24 2.35  
Year to date precipitation 0.24 2.35  
Sea Level Pressure  
Sea Level Pressure 30.09 in    
Wind  
Wind Speed 10 mph (NW)    
Max Wind Speed 24 mph    
Max Gust Speed 32 mph    
Visibility 9 miles    
Events Rain    
T = Trace of Precipitation, MM = Missing Value Source: NWS Daily Summary

Daily Weather History Graph

Daily Weather History Graph

Search for Another Location

Airport or City:

Trip Planner

Search our weather history database for the weather conditions in past years. The results will help you decide how hot, cold, wet, or windy it might be!

Date:

Astronomy

Jan. 31, 2013 Rise Set
Actual Time 7:13 AM EST 6:04 PM EST
Civil Twilight 6:48 AM EST 6:29 PM EST
Nautical Twilight 6:20 AM EST 6:57 PM EST
Astronomical Twilight 5:52 AM EST 7:25 PM EST
Moon 10:34 PM EST (1/31) 9:39 AM EST (1/31)
Length of Visible Light 11h 40m
Length of Day
10h 50m
Waning Gibbous, 80% of the Moon is Illuminated
Jan 31
Waning Gibbous
Feb 3
Last Quarter
Feb 10
New
Feb 17
First Quarter
Feb 25
Full

Hourly Weather History & Observations

Time (EST) Temp. Dew Point Humidity Pressure Visibility Wind Dir Wind Speed Gust Speed Precip Events Conditions
12:53 AM 70.0 °F 64.9 °F 84% 29.92 in 10.0 mi South 16.1 mph - N/A   Partly Cloudy
1:53 AM 70.0 °F 66.0 °F 87% 29.94 in 10.0 mi SW 15.0 mph 24.2 mph N/A   Mostly Cloudy
2:02 AM 66.2 °F 62.6 °F 88% 29.97 in 10.0 mi West 19.6 mph 32.2 mph 0.00 in Rain Light Rain
2:11 AM 62.6 °F 59.0 °F 88% 29.97 in 6.0 mi NW 20.7 mph 29.9 mph 0.00 in Rain Rain
2:53 AM 59.0 °F 59.0 °F 100% 29.98 in 10.0 mi West 12.7 mph 21.9 mph 0.01 in Rain Light Rain
3:04 AM 59.0 °F 59.0 °F 100% 29.99 in 5.0 mi West 12.7 mph - 0.00 in Rain Light Rain
3:21 AM 59.0 °F 59.0 °F 100% 30.00 in 6.0 mi WNW 16.1 mph 21.9 mph 0.01 in Rain Light Rain
3:31 AM 59.0 °F 57.2 °F 94% 30.01 in 5.0 mi WNW 15.0 mph - 0.02 in Rain Light Rain
3:53 AM 57.0 °F 55.6 °F 95% 30.01 in 5.0 mi NW 9.2 mph - 0.02 in Rain Light Rain
4:17 AM 55.4 °F 55.4 °F 100% 30.01 in 10.0 mi NNW 9.2 mph - 0.01 in   Overcast
4:53 AM 55.9 °F 54.7 °F 96% 30.02 in 10.0 mi NW 6.9 mph - 0.01 in   Overcast
5:53 AM 57.0 °F 55.0 °F 93% 30.03 in 10.0 mi NW 5.8 mph - 0.00 in   Overcast
6:53 AM 57.0 °F 53.6 °F 88% 30.06 in 10.0 mi NW 3.5 mph - 0.00 in   Overcast
7:53 AM 57.0 °F 48.2 °F 72% 30.09 in 10.0 mi NW 9.2 mph - N/A   Scattered Clouds
8:53 AM 57.9 °F 45.3 °F 63% 30.12 in 10.0 mi NW 9.2 mph - N/A   Scattered Clouds
9:53 AM 59.0 °F 45.0 °F 60% 30.14 in 10.0 mi NW 10.4 mph - N/A   Scattered Clouds
10:53 AM 61.0 °F 43.0 °F 52% 30.15 in 10.0 mi NNW 11.5 mph - N/A   Scattered Clouds
11:53 AM 61.0 °F 39.0 °F 44% 30.15 in 10.0 mi NW 6.9 mph 17.3 mph N/A   Mostly Cloudy
12:53 PM 63.0 °F 36.0 °F 37% 30.14 in 10.0 mi NNW 10.4 mph - N/A   Scattered Clouds
1:53 PM 62.1 °F 32.0 °F 32% 30.14 in 10.0 mi WNW 6.9 mph 18.4 mph N/A   Scattered Clouds
2:53 PM 64.0 °F 32.0 °F 30% 30.14 in 10.0 mi WNW 15.0 mph 21.9 mph N/A   Partly Cloudy
3:53 PM 64.0 °F 30.9 °F 29% 30.14 in 10.0 mi NNW 15.0 mph - N/A   Partly Cloudy
4:53 PM 63.0 °F 26.1 °F 25% 30.15 in 10.0 mi NW 10.4 mph - N/A   Partly Cloudy
5:53 PM 59.0 °F 27.0 °F 29% 30.16 in 10.0 mi NW 10.4 mph - N/A   Clear
6:53 PM 55.9 °F 27.0 °F 33% 30.17 in 10.0 mi NW 5.8 mph - N/A   Clear
7:53 PM 54.0 °F 28.9 °F 38% 30.20 in 10.0 mi NW 6.9 mph - N/A   Clear
8:53 PM 54.0 °F 28.9 °F 38% 30.22 in 10.0 mi NW 5.8 mph - N/A   Clear
9:53 PM 51.1 °F 28.9 °F 43% 30.23 in 10.0 mi NW 4.6 mph - N/A   Clear
10:53 PM 51.1 °F 28.0 °F 41% 30.24 in 10.0 mi NW 11.5 mph - N/A   Partly Cloudy
11:53 PM 50.0 °F 28.9 °F 44% 30.25 in 10.0 mi NW 9.2 mph - N/A   Partly Cloudy